| time (UTC) | temp C | wind direction | speed KPH | gust KPH | rain 1hr cm | rain 24hr cm | rain mn cm | humidity % | barometer mb |
| 20260507134510 | 24 | 205 | 4.8 | 17.7 | 0.00 | 0.00 | 0.00 | 47 | 1007.3 |
| 20260507133001 | 24 | 159 | 8.0 | 17.7 | 0.00 | 0.00 | 0.00 | 46 | 1007.6 |
| 20260507131515 | 23 | 202 | 4.8 | 14.5 | 0.00 | 0.00 | 0.00 | 48 | 1008.0 |
| 20260507124513 | 22 | 96 | 8.0 | 16.1 | 0.00 | 0.00 | 0.00 | 47 | 1008.3 |
| 20260507123014 | 22 | 95 | 4.8 | 16.1 | 0.00 | 0.00 | 0.00 | 46 | 1008.4 |
| 20260507121508 | 22 | 111 | 8.0 | 14.5 | 0.00 | 0.00 | 0.00 | 49 | 1008.3 |
| 20260507120007 | 22 | 103 | 8.0 | 14.5 | 0.00 | 0.00 | 0.00 | 49 | 1008.1 |
| 20260507114506 | 22 | 138 | 4.8 | 14.5 | 0.00 | 0.00 | 0.00 | 51 | 1008.2 |
| 20260507113032 | 22 | 109 | 6.4 | 16.1 | 0.00 | 0.00 | 0.00 | 54 | 1008.3 |
| 20260507111516 | 22 | 77 | 11.3 | 25.7 | 0.00 | 0.00 | 0.00 | 53 | 1008.2 |
| 20260507110006 | 21 | 127 | 9.7 | 16.1 | 0.00 | 0.00 | 0.00 | 56 | 1008.4 |
| 20260507104504 | 22 | 75 | 6.4 | 12.9 | 0.00 | 0.00 | 0.00 | 53 | 1008.5 |
| 20260507103008 | 24 | 137 | 9.7 | 20.9 | 0.00 | 0.00 | 0.00 | 45 | 1008.6 |
| 20260507101517 | 23 | 360 | 6.4 | 17.7 | 0.00 | 0.00 | 0.00 | 38 | 1008.3 |
| 20260507100020 | 25 | 38 | 4.8 | 14.5 | 0.00 | 0.00 | 0.00 | 30 | 1008.6 |
| 20260507094503 | 25 | 163 | 3.2 | 22.5 | 0.00 | 0.00 | 0.00 | 27 | 1008.7 |
| 20260507093008 | 24 | 96 | 4.8 | 30.6 | 0.00 | 0.00 | 0.00 | 29 | 1008.6 |
| 20260507091511 | 25 | 189 | 3.2 | 19.3 | 0.00 | 0.00 | 0.00 | 29 | 1009.2 |
| 20260507090016 | 24 | 88 | 3.2 | 19.3 | 0.00 | 0.00 | 0.00 | 31 | 1009.2 |
| 20260507084520 | 23 | 68 | 9.7 | 24.1 | 0.00 | 0.00 | 0.00 | 34 | 1009.3 |
| 20260507083005 | 23 | 215 | 11.3 | 24.1 | 0.00 | 0.00 | 0.00 | 34 | 1009.3 |
| 20260507081508 | 22 | 96 | 17.7 | 33.8 | 0.00 | 0.00 | 0.00 | 35 | 1009.3 |
| 20260507080015 | 23 | 94 | 4.8 | 17.7 | 0.00 | 0.00 | 0.00 | 32 | 1009.7 |
| 20260507074518 | 22 | 240 | 6.4 | 22.5 | 0.00 | 0.00 | 0.00 | 29 | 1009.4 |
| 20260507073025 | 22 | 259 | 3.2 | 17.7 | 0.00 | 0.00 | 0.00 | 30 | 1009.4 |
| 20260507071505 | 22 | 85 | 3.2 | 20.9 | 0.00 | 0.00 | 0.00 | 30 | 1009.4 |
| 20260507070013 | 22 | 190 | 4.8 | 14.5 | 0.00 | 0.00 | 0.00 | 30 | 1009.5 |
| 20260507064518 | 22 | 352 | 1.6 | 11.3 | 0.00 | 0.00 | 0.00 | 31 | 1009.5 |
| 20260507063024 | 22 | 77 | 0.0 | 4.8 | 0.00 | 0.00 | 0.00 | 33 | 1009.6 |
| 20260507061506 | 22 | 135 | 1.6 | 9.7 | 0.00 | 0.00 | 0.00 | 31 | 1009.7 |
| 20260507060007 | 21 | 342 | 3.2 | 17.7 | 0.00 | 0.00 | 0.00 | 33 | 1009.7 |
| 20260507054502 | 21 | 102 | 6.4 | 14.5 | 0.00 | 0.00 | 0.00 | 30 | 1009.6 |
| 20260507053002 | 20 | 83 | 6.4 | 19.3 | 0.00 | 0.00 | 0.00 | 33 | 1009.5 |
| 20260507051507 | 20 | 125 | 4.8 | 17.7 | 0.00 | 0.00 | 0.00 | 33 | 1009.6 |
| 20260507050012 | 19 | 92 | 1.6 | 11.3 | 0.00 | 0.00 | 0.00 | 36 | 1009.5 |
| 20260507044512 | 20 | 87 | 3.2 | 14.5 | 0.00 | 0.00 | 0.00 | 35 | 1009.6 |
| 20260507043006 | 20 | 92 | 4.8 | 14.5 | 0.00 | 0.00 | 0.00 | 34 | 1009.6 |
| 20260507041505 | 18 | 78 | 1.6 | 12.9 | 0.00 | 0.00 | 0.00 | 40 | 1009.7 |
| 20260507040006 | 17 | 82 | 8.0 | 16.1 | 0.00 | 0.00 | 0.00 | 54 | 1009.9 |
| 20260507034520 | 17 | 100 | 12.9 | 19.3 | 0.00 | 0.00 | 0.00 | 59 | 1010.1 |
| 20260507033018 | 18 | 96 | 8.0 | 17.7 | 0.00 | 0.00 | 0.00 | 57 | 1010.1 |
| 20260507031502 | 17 | 88 | 4.8 | 11.3 | 0.00 | 0.00 | 0.00 | 71 | 1010.2 |
| 20260507030008 | 16 | 24 | 0.0 | 4.8 | 0.00 | 0.00 | 0.00 | 78 | 1010.6 |
| 20260507024515 | 16 | 331 | 0.0 | 4.8 | 0.00 | 0.00 | 0.00 | 79 | 1010.8 |
| 20260507023012 | 17 | 185 | 0.0 | 1.6 | 0.00 | 0.00 | 0.00 | 74 | 1010.8 |
| 20260507021522 | 17 | 179 | 0.0 | 0.0 | 0.00 | 0.00 | 0.00 | 71 | 1011.1 |
| 20260507020006 | 17 | 179 | 0.0 | 3.2 | 0.00 | 0.00 | 0.00 | 70 | 1011.2 |
| 20260507014509 | 17 | 242 | 0.0 | 4.8 | 0.00 | 0.00 | 0.00 | 68 | 1011.1 |
| 20260507013017 | 17 | 205 | 1.6 | 6.4 | 0.00 | 0.00 | 0.00 | 68 | 1010.8 |
| 20260507011523 | 17 | 228 | 0.0 | 11.3 | 0.00 | 0.00 | 0.00 | 70 | 1010.8 |
| 20260507010024 | 17 | 176 | 0.0 | 12.9 | 0.00 | 0.00 | 0.00 | 70 | 1011.0 |
| 20260507004506 | 17 | 278 | 6.4 | 14.5 | 0.00 | 0.00 | 0.00 | 69 | 1011.2 |
| 20260507003012 | 17 | 246 | 3.2 | 11.3 | 0.00 | 0.00 | 0.00 | 67 | 1011.3 |
| 20260507001544 | 17 | 231 | 4.8 | 8.0 | 0.00 | 0.00 | 0.00 | 64 | 1011.5 |
| 20260507000024 | 17 | 235 | 3.2 | 6.4 | 0.00 | 0.00 | 0.00 | 67 | 1011.4 |
| 20260506234524 | 17 | 237 | 6.4 | 14.5 | 0.00 | 0.00 | 0.00 | 65 | 1011.3 |
| 20260506233012 | 17 | 203 | 1.6 | 6.4 | 0.00 | 0.00 | 0.00 | 62 | 1011.4 |
| 20260506224521 | 17 | 294 | 3.2 | 9.7 | 0.00 | 0.00 | 0.00 | 67 | 1011.9 |
| 20260506223031 | 18 | 242 | 3.2 | 9.7 | 0.00 | 0.00 | 0.00 | 66 | 1011.8 |
| 20260506221512 | 18 | 271 | 3.2 | 6.4 | 0.00 | 0.00 | 0.00 | 67 | 1011.9 |
| 20260506220014 | 18 | 298 | 3.2 | 8.0 | 0.00 | 0.00 | 0.00 | 66 | 1012.0 |
| 20260506214520 | 18 | 219 | 3.2 | 6.4 | 0.00 | 0.00 | 0.00 | 65 | 1012.0 |
| 20260506213005 | 18 | 284 | 3.2 | 9.7 | 0.00 | 0.00 | 0.00 | 65 | 1012.2 |
| 20260506211507 | 18 | 320 | 1.6 | 4.8 | 0.00 | 0.00 | 0.00 | 55 | 1012.0 |
| 20260506210027 | 18 | 69 | 3.2 | 6.4 | 0.00 | 0.00 | 0.00 | 61 | 1011.9 |
| 20260506204502 | 18 | 90 | 4.8 | 12.9 | 0.00 | 0.00 | 0.00 | 73 | 1011.7 |
| 20260506203001 | 20 | 80 | 8.0 | 14.5 | 0.00 | 0.00 | 0.00 | 56 | 1011.7 |
| 20260506201510 | 20 | 34 | 0.0 | 1.6 | 0.00 | 0.00 | 0.00 | 45 | 1011.7 |
| 20260506200016 | 20 | 83 | 3.2 | 11.3 | 0.00 | 0.00 | 0.00 | 44 | 1011.1 |
| 20260506194517 | 20 | 105 | 8.0 | 14.5 | 0.00 | 0.00 | 0.00 | 48 | 1010.8 |
| 20260506193002 | 20 | 73 | 9.7 | 16.1 | 0.00 | 0.00 | 0.00 | 57 | 1011.3 |
| 20260506191510 | 20 | 103 | 6.4 | 16.1 | 0.00 | 0.00 | 0.00 | 55 | 1011.3 |
| 20260506190011 | 20 | 65 | 3.2 | 16.1 | 0.00 | 0.00 | 0.00 | 54 | 1010.5 |
| 20260506184515 | 19 | 102 | 8.0 | 14.5 | 0.00 | 0.00 | 0.00 | 54 | 1010.7 |
| 20260506183019 | 19 | 89 | 4.8 | 16.1 | 0.00 | 0.00 | 0.00 | 52 | 1010.8 |
| 20260506181507 | 19 | 72 | 6.4 | 14.5 | 0.00 | 0.00 | 0.00 | 52 | 1011.0 |
| 20260506180010 | 19 | 101 | 6.4 | 11.3 | 0.00 | 0.00 | 0.00 | 54 | 1011.2 |
| 20260506174510 | 19 | 81 | 4.8 | 14.5 | 0.00 | 0.00 | 0.00 | 55 | 1011.4 |
| 20260506173016 | 19 | 107 | 4.8 | 11.3 | 0.00 | 0.00 | 0.00 | 53 | 1011.4 |
| 20260506171516 | 20 | 97 | 6.4 | 11.3 | 0.00 | 0.00 | 0.00 | 48 | 1011.1 |
| 20260506170005 | 20 | 123 | 6.4 | 16.1 | 0.00 | 0.00 | 0.00 | 49 | 1011.1 |
| 20260506164532 | 20 | 70 | 8.0 | 17.7 | 0.00 | 0.00 | 0.00 | 50 | 1010.9 |
| 20260506163014 | 20 | 108 | 9.7 | 14.5 | 0.00 | 0.00 | 0.00 | 50 | 1011.2 |
| 20260506161522 | 20 | 115 | 11.3 | 16.1 | 0.00 | 0.00 | 0.00 | 48 | 1011.5 |
| 20260506160024 | 20 | 116 | 6.4 | 12.9 | 0.00 | 0.00 | 0.00 | 50 | 1011.8 |
| 20260506154508 | 20 | 105 | 9.7 | 14.5 | 0.00 | 0.00 | 0.00 | 49 | 1012.0 |
| 20260506153014 | 20 | 97 | 8.0 | 14.5 | 0.00 | 0.00 | 0.00 | 51 | 1012.1 |
| 20260506144511 | 20 | 92 | 9.7 | 16.1 | 0.00 | 0.00 | 0.00 | 58 | 1012.2 |
| 20260506143008 | 20 | 107 | 8.0 | 14.5 | 0.00 | 0.00 | 0.00 | 55 | 1012.2 |